Weather in Ust-Chorna

Ukraine / Zakarpattia District     48°19′08″N   23°56′33″E
temp.,
°C
wind,
m/s
gust,
m/s
humid.,
%
clouds,
%
prec.,
mm/h
press.,
hPa
HPBL,
m
7 march, sun
sun723:00−10nne12780 0.0 103232
02:00−11nne01760 0.0 103225
05:00−9ssw118155 0.0 102958
08:00−8sw128275 0.0 1028107
11:00−4sw3768100 0.0 10261138
14:00−2sw476594 0.1 10231212
17:00−3sw377056 0.0 10201069
20:00−6sw128058 0.0 102026
8 march, mon
mon823:00−6ssw118298 0.0 102024
02:00−5ssw228399 0.0 1019125
05:00−7ssw1286100 0.0 101740
08:00−6ssw1284100 0.1 1017216
11:00−2sw2375100 0.1 1017668
14:00−1wsw2376100 0.3 1017719
17:00−2wsw238299 0.4 1017589
20:00−6nne239296 1.7 1020144
9 march, tue
tue923:00−10ne228634 0.0 102268
02:00−11ne228417 0.0 102254
05:00−11ne22830 0.0 102248
08:00−10ne227932 0.0 102365
11:00−2e116244 0.0 1022674
14:000sw115640 0.0 10211089
17:00−2sw1158100 0.0 1020414
20:00−6ne2273100 0.0 102134
10 march, wed
wed1023:00−7ne2288100 0.0 102168
02:00−7ne2284100 0.0 102058
05:00−7ne1178100 0.0 101938
08:00−6ne1175100 0.0 102049
11:00−1wnw116699 0.0 1020988
14:000nw1167100 0.3 10201029
17:00−3ne238199 0.9 1020572
20:00−7ne238794 0.9 102385
11 march, thu
thu1123:00−8ne228513 0.0 102560
02:00−8ne22847 0.0 102544
05:00−9ne11800 0.0 102432
08:00−7s01770 0.0 102553
11:00−2sw247013 0.0 1023925
14:00−1sw366556 0.0 10211079
17:00−2sw2773100 0.0 1020997
20:00−4sw3496100 1.0 1020286